This is the latest recevied weather packets stored in our database for station/object SP9KB-14. If no packets are shown the sender has not sent any weather packets the latest 10 day(s).
| Time | Temp. | Humidity | Pressure | Rain* | Wind** | Luminosity | Snow |
|---|---|---|---|---|---|---|---|
| 1777803326 | 22.78° C | 44% | 1041.9 hPa | 0 mm | - | - | - |
| 1777803025 | 22.22° C | 44% | 1042.2 hPa | 0 mm | - | - | - |
| 1777802725 | 22.22° C | 44% | 1042.1 hPa | 0 mm | - | - | - |
| 1777802424 | 22.78° C | 45% | 1042.1 hPa | 0 mm | - | - | - |
| 1777802122 | 22.78° C | 44% | 1042 hPa | 0 mm | - | - | - |
| 1777801822 | 22.22° C | 44% | 1042.1 hPa | 0 mm | - | - | - |
| 1777801521 | 22.22° C | 44% | 1042.1 hPa | 0 mm | - | - | - |
| 1777801221 | 22.78° C | 45% | 1042 hPa | 0 mm | - | - | - |
| 1777800921 | 22.22° C | 46% | 1042.2 hPa | 0 mm | - | - | - |
| 1777800620 | 22.22° C | 45% | 1042.2 hPa | 0 mm | - | - | - |
| 1777800319 | 22.22° C | 45% | 1042.5 hPa | 0 mm | - | - | - |
| 1777800019 | 21.67° C | 46% | 1042.4 hPa | 0 mm | - | - | - |
| 1777799718 | 21.67° C | 47% | 1042.4 hPa | 0 mm | - | - | - |
| 1777799418 | 21.67° C | 46% | 1042.5 hPa | 0 mm | - | - | - |
| 1777799117 | 21.67° C | 46% | 1042.5 hPa | 0 mm | - | - | - |
| 1777798816 | 22.22° C | 45% | 1042.5 hPa | 0 mm | - | - | - |
| 1777798514 | 21.11° C | 47% | 1042.7 hPa | 0 mm | - | - | - |
| 1777798213 | 21.11° C | 47% | 1042.6 hPa | 0 mm | - | - | - |
| 1777797913 | 21.11° C | 47% | 1042.4 hPa | 0 mm | - | - | - |
| 1777797612 | 21.11° C | 47% | 1042.8 hPa | 0 mm | - | - | - |
| 1777797311 | 20.56° C | 48% | 1042.8 hPa | 0 mm | - | - | - |
| 1777797011 | 21.11° C | 49% | 1042.8 hPa | 0 mm | - | - | - |
| 1777796710 | 20.56° C | 48% | 1042.6 hPa | 0 mm | - | - | - |
| 1777796409 | 20.56° C | 49% | 1042.6 hPa | 0 mm | - | - | - |
| 1777796109 | 20.56° C | 48% | 1042.7 hPa | 0 mm | - | - | - |
* Rain latest hour (hover to see other rain measurements)
** Current wind speed in m/s (hover to see current wind gust speed)